Regional Weather Roundup
Issued by NWS Sioux Falls, SD

Home | Current Version | Previous Version | Text Only | Print | Product List | Glossary On
Versions: 1 2 3 4 5 6 7 8 9 10 11 12 13 14 15 16 17 18 19 20 21 22 23 24 25 26 27 28 29 30 31 32 33 34 35 36 37 38 39 40 41 42 43 44 45 46 47 48 49 50
000
ASUS43 KFSD 120410
RWRFSD

WEATHER ROUNDUP FOR SE SOUTH DAKOTA/SW MINNESOTA/NW IOWA
NATIONAL WEATHER SERVICE SIOUX FALLS SD
1000 PM CST THU FEB 11 2016

NOTE: "FAIR" INDICATES FEW OR NO CLOUDS BELOW 12,000 FEET WITH NO
SIGNIFICANT WEATHER AND OR OBSTRUCTIONS TO VISIBILITY.


SDZ038>040-050-052>070-120500-
SOUTHEAST SOUTH DAKOTA

CITY           SKY/WX    TMP DP  RH WIND       PRES   REMARKS
BROOKINGS      FLURRIES  14  11  87 CALM      30.19F
CHAMBERLAIN    CLOUDY    24  23  94 NW5       30.24R WCI  18
HURON          CLOUDY    22  20  92 NW7       30.25R WCI  13
MADISON        FLURRIES  12  12 100 NW5       30.19S WCI   4
MITCHELL       CLOUDY    19  17  92 CALM      30.25R
SIOUX FALLS    LGT SNOW  11   7  84 CALM      30.21S
WINNER         CLOUDY    28  24  85 N6        30.22R WCI  22
YANKTON        CLOUDY    16  12  86 CALM      30.23S
$$

MNZ071-072-080-081-089-090-097-098-120500-
SOUTHWEST MINNESOTA

CITY           SKY/WX    TMP DP  RH WIND       PRES   REMARKS
FAIRMONT       CLOUDY    12   7  79 W7        30.22R WCI   2
JACKSON        CLOUDY     9   3  78 W6        30.20F WCI  -1
LUVERNE        CLOUDY     9   5  85 CALM      30.22S
MARSHALL       FLURRIES  14  11  87 W9        30.23S WCI   2
MONTEVIDEO     LGT SNOW  16  10  79 CALM      30.26R
PIPESTONE      FLURRIES  16   9  73 CALM      30.19S
REDWOOD FALLS  CLOUDY    17  13  84 W6        30.23S WCI   9
TRACY          CLOUDY    11   9  88 W5        30.22S WCI   3
WINDOM         CLOUDY    10   7  85 CALM      30.21S
WORTHINGTON    CLOUDY     7   3  85 W7        30.20S WCI  -5
$$

IAZ001>003-012>014-020>022-031-032-NEZ013-014-SDZ071-120500-
NORTHWEST IOWA

CITY           SKY/WX    TMP DP  RH WIND       PRES   REMARKS
CHEROKEE       CLOUDY    12  11  94 CALM      30.22F
DENISON        CLOUDY    14  14 100 CALM      30.20R
ESTHERVILLE    CLOUDY    10   8  92 SW8       30.21R WCI  -2
LE MARS        CLOUDY    18  18 100 CALM      30.23F
ORANGE CITY    CLOUDY    16  16 100 CALM      30.20F
SHELDON          N/A      7   5  92 CALM      30.20S
SIOUX CITY     CLOUDY    20  16  84 CALM      30.24R
SPENCER        CLOUDY     8   5  87 SW5       30.21S WCI   0
STORM LAKE     CLOUDY    10  10 100 S6        30.20S WCI   1
$$

ABBREVIATIONS USED IN REMARKS
   TC - TEMPERATURE IN CELSIUS
  WCI - WIND CHILL INDEX
   HX - HEAT INDEX
  VSB - VISIBILITY




USA.gov is the U.S. government's official web portal to all federal, state and local government web resources and services.